Regional Weather Roundup
Issued by NWS

Home | Current Version | Previous Version | Text Only | Print | Product List | Glossary On
Versions: 1 2 3 4 5 6 7 8 9 10 11 12 13 14 15 16 17 18 19 20 21 22 23 24 25 26 27 28 29 30 31 32 33 34 35 36 37 38 39 40 41 42 43 44 45 46 47 48 49 50
000
ASUS43 KIND 280609
RWRIN

WEATHER ROUNDUP FOR INDIANA
NATIONAL WEATHER SERVICE INDIANAPOLIS IN
200 AM EDT THU JUL 28 2016

NOTE: "FAIR" INDICATES FEW OR NO CLOUDS BELOW 12,000 FEET WITH NO
SIGNIFICANT WEATHER AND/OR OBSTRUCTIONS TO VISIBILITY.

* - STATION DOES NOT REPORT WEATHER SUCH AS PRECIPITATION OR FOG.

+ - STATION NOT QUALITY CONTROLLED BY THE NATIONAL WEATHER SERVICE.
    USE DATA WITH CAUTION...ESPECIALLY DEWPOINT AND RELATIVE
    HUMIDITY OBSERVATIONS.

INZ001>003-010>013-019-020-280700-
NORTHWEST INDIANA

CITY           SKY/WX    TMP DP  RH WIND       PRES   REMARKS
GARY /AIRPORT/ CLEAR     71  70  98 CALM      29.94F
KNOX *+        PTCLDY    68  66  94 CALM      29.94F
LA PORTE +     CLEAR     70  70 100 CALM      29.95S
MICHIGAN CITY+ CLEAR     68  68 100 CALM      29.94F
MONTICELLO +   PTCLDY    69  65  88 CALM      29.94F
6HR MIN TEMP:  68; 6HR MAX TEMP:  82;

RENSSELAER +   PTCLDY    68  66  94 CALM      29.94F
VALPARAISO     CLEAR     70  67  90 CALM      29.94F
6HR MIN TEMP:  68; 6HR MAX TEMP:  84;


$$

LMZ046-743>745-280700-
SOUTHERN LAKE MICHIGAN

STATION/POSITION TIME  TEMP    WIND        PRES    WAVE
                       AIR SEA DIR/SP/G            HT
                 (UTC) (F)     (DEG/KT/KT) (MB)    (FT)
BURNS HARBOR     0500   78     140/  2/ 25 1014.2F
MICHIGAN CITY    0500   76     110/  2/  3   N/A
5NW MICH CITY    0600   77 77  100/  2/  2   N/A     0

$$

INZ004-005-014>016-021>024-280700-
NORTH CENTRAL INDIANA

CITY           SKY/WX    TMP DP  RH WIND       PRES   REMARKS
GOSHEN         CLEAR     70  63  78 CALM      29.94F
6HR MIN TEMP:  70; 6HR MAX TEMP:  83;

LOGANSPORT +   CLOUDY    66  64  94 CALM      29.95F
PERU/GRISSOM   CLOUDY    74  67  78 N2        29.93F
6HR MIN TEMP:  72; 6HR MAX TEMP:  83;

ROCHESTER +    PTCLDY    72  70  94 CALM      29.95S
SOUTH BEND     CLEAR     69  66  90 CALM      29.95S
6HR MIN TEMP:  69; 6HR MAX TEMP:  83;

WARSAW +       PTCLDY    68  66  94 CALM      29.94F

$$

INZ006>009-017-018-025>027-280700-
NORTHEAST INDIANA

CITY           SKY/WX    TMP DP  RH WIND       PRES   REMARKS
ANGOLA *+      CLEAR     66  55  68 CALM      29.95F
AUBURN +       CLEAR     70  63  78 CALM      29.95F
FORT WAYNE     MOCLDY    71  65  81 CALM      29.95F
6HR MIN TEMP:  68; 6HR MAX TEMP:  85;

HUNTINGTON +   MOCLDY    70  68  92 CALM      29.95S
6HR MIN TEMP:  69; 6HR MAX TEMP:  83;


$$

INZ028-029-035-036-043>045-051>053-280700-
WEST CENTRAL INDIANA

CITY           SKY/WX    TMP DP  RH WIND       PRES   REMARKS
CRAWFORDSVL +  CLOUDY    70  70 100 CALM      29.95F
6HR MIN TEMP:  70; 6HR MAX TEMP:  80;

GREENCASTLE +  CLOUDY    73  72  94 CALM      29.94F
LAFAYETTE      PTCLDY    69  68  96 CALM      29.93F
6HR MIN TEMP:  69; 6HR MAX TEMP:  83;

TERRE HAUTE    CLOUDY    74  71  91 N3        29.93F
6HR MIN TEMP:  74; 6HR MAX TEMP:  84;


$$

INZ030>032-037>040-046>048-054>057-064-065-280700-
CENTRAL INDIANA

CITY           SKY/WX    TMP DP  RH WIND       PRES   REMARKS
INDIANAPOLIS   CLOUDY    79  65  62 NE6       29.94F
6HR MIN TEMP:  79; 6HR MAX TEMP:  84;

-EAGLE CREEK   CLOUDY    77  68  73 CALM      29.93F
6HR MIN TEMP:  77; 6HR MAX TEMP:  84;

KOKOMO *+      CLOUDY    72  64  78 CALM      29.95F
6HR MIN TEMP:  72; 6HR MAX TEMP:  84;

MARION +       CLOUDY    69  67  93 CALM      29.96F
MT COMFORT *+  CLOUDY    73  70  88 CALM      29.96F
SHELBYVILLE    CLOUDY    77  72  84 NE3       29.93F
6HR MIN TEMP:  77; 6HR MAX TEMP:  85;

ZIONSVILLE +   MOCLDY    71  69  92 CALM      29.95F
6HR MIN TEMP:  68; 6HR MAX TEMP:  79;


$$

INZ033-034-041-042-049-050-058-059-280700-
EAST CENTRAL INDIANA

CITY           SKY/WX    TMP DP  RH WIND       PRES   REMARKS
MUNCIE         CLOUDY    74  69  85 CALM      29.95F
6HR MIN TEMP:  71; 6HR MAX TEMP:  83;


$$

INZ060-061-067>069-081>083-085>088-280700-
SOUTHWEST INDIANA

CITY           SKY/WX    TMP DP  RH WIND       PRES   REMARKS
EVANSVILLE     CLOUDY    75  73  93 CALM      29.93S FOG
6HR MIN TEMP:  75; 6HR MAX TEMP:  78; 6HR PCP:  0.01;

HUNTINGBURG *+ CLOUDY    73  70  88 SW3       29.93F
6HR MIN TEMP:  73; 6HR MAX TEMP:  79;

WASHINGTON +   LGT RAIN  75  75 100 MISG      29.92F
6HR MIN TEMP:  75; 6HR MAX TEMP:  81; 6HR PCP:  0.01;


$$

INZ062-063-066-070>080-084-089>092-280700-
SOUTH CENTRAL AND SOUTHEAST INDIANA

CITY           SKY/WX    TMP DP  RH WIND       PRES   REMARKS
BLOOMINGTON    CLOUDY    75  72  90 CALM      29.94F
6HR MIN TEMP:  74; 6HR MAX TEMP:  81; 6HR PCP:  0.01;

MADISON *+     CLOUDY    75  72  88 CALM      29.95F
NORTH VERNON + CLOUDY   N/A N/A N/A CALM      29.94F
SEYMOUR +      MOCLDY    77  75  94 CALM      29.92F

$$




USA.gov is the U.S. government's official web portal to all federal, state and local government web resources and services.